Location: Frosinone
(41.6330°N, 13.3170°E)
Time: 04:10:40
(UTC+01:00)

ISS - Visible Passes

Search period start: 23 January 2019 00:00
Search period end: 02 February 2019 00:00
Orbit: 404 x 411 km, 51.6° (Epoch: 23 January)

Date Brightness Start Highest point End Pass type
(mag) Time Alt. Az. Time Alt. Az. Time Alt. Az.
23 Jan -3.9 18:37:03 10° SW 18:40:19 70° SE 18:41:04 48° ENE visible
24 Jan -2.9 17:46:00 10° SSW 17:49:03 36° SE 17:52:03 10° ENE visible
24 Jan -1.9 19:22:36 10° W 19:24:46 27° NW 19:24:46 27° NW visible
25 Jan -3.2 18:30:56 10° WSW 18:34:09 49° NNW 18:35:40 26° NNE visible
26 Jan -3.8 17:39:27 10° SW 17:42:44 87° NW 17:46:03 10° NE visible
26 Jan -1.6 19:17:06 10° WNW 19:19:13 20° NNW 19:19:13 20° NNW visible
27 Jan -2.2 18:25:12 10° W 18:28:04 27° NNW 18:30:00 16° NNE visible
28 Jan -1.4 19:11:38 10° NW 19:13:26 16° NNW 19:13:26 16° NNW visible
29 Jan -1.7 18:19:40 10° WNW 18:22:05 18° NNW 18:24:08 12° NNE visible
30 Jan -1.4 19:05:56 10° NW 19:07:31 14° N 19:07:31 14° N visible
31 Jan -1.5 18:14:06 10° NW 18:16:07 15° N 18:18:09 10° NNE visible
01 Feb -1.6 18:59:46 10° NNW 19:01:34 16° N 19:01:34 16° N visible
